FLOCK 2E'-19

Last updated on Sun May 13 2018 00:15:07 GMT+0000 (Coordinated Universal Time)

1 41777U 98067KP 18132.88719735 .13878815 12456-4 67790-3 0 9994 2 41777 51.6070 137.0157 0002336 223.1762 136.9083 16.43100745 94754

Satellite not in orbit